Location: Bombon
(48.5718°N, 2.8608°E)
Time: 16:00:31
(UTC+00:00)

Daily predictions for brighter satellites

Satellite Brightness Start Highest point End
(mag) Time Altitude Azimuth Time Altitude Azimuth Time Altitude Azimuth
Thor Agena Rocket 3.8 16:21:47 10° SE 16:26:48 49° ENE 16:31:46 10° N
BlueWalker 3 1.7 16:26:05 10° WNW 16:29:44 84° NNE 16:33:21 10° ESE
Cosmos 1607 4.2 16:24:43 10° NNW 16:30:42 46° NE 16:36:43 10° ESE
Cosmos 2228 3.1 16:26:38 10° S 16:30:47 58° E 16:34:58 10° NNE
BREEZE-M DEB (TANK) 2.8 16:30:43 10° W 16:33:12 83° N 16:39:36 10° E
Cosmos 1484 Rocket 2.5 16:33:11 10° SSE 16:36:43 84° ENE 16:40:14 10° NNW
MOS 1 Rocket 4.2 16:34:17 10° ESE 16:38:28 29° ENE 16:42:51 10° N
Meteor 1-28 Rocket 3.0 16:35:46 10° NNE 16:39:04 54° E 16:42:20 10° S
Cosmos 1758 Rocket 3.6 16:39:52 10° N 16:44:06 51° ENE 16:48:16 10° SSE
SL-16 R/B 2.6 16:39:14 10° NNE 16:45:31 83° ESE 16:51:43 10° SSW
Cosmos 1461 4.4 16:42:56 10° SSE 16:45:32 17° ESE 16:47:52 11° ENE
Cosmos 2098 Rocket 3.5 16:43:18 10° SSE 16:47:00 39° E 16:51:21 10° NNE
BREEZE-M DEB (TANK) 3.0 16:46:28 10° S 16:47:30 14° SE 16:48:44 10° ESE
Lacrosse 5 rocket 1.6 16:45:28 10° WSW 16:49:08 52° NNW 16:52:27 12° NE
NOSS 2-2 (D) 2.9 16:48:29 10° SSW 16:51:50 58° SE 16:54:21 14° NE
Cosmos 1656 3.8 16:46:35 10° S 16:52:04 58° ESE 16:57:38 10° NE
Cosmos 2297 Rocket 2.2 16:49:39 10° NNW 16:55:17 61° ENE 17:00:53 10° SE
Cosmos 405 Rocket 2.4 16:55:34 10° NNW 16:58:50 75° W 17:02:03 10° S
SL-08 ROCKET BODY 4.3 16:55:42 10° N 17:01:39 77° E 17:07:39 10° SSE
SAR-Lupe-4 3.7 16:58:42 10° SSE 17:02:09 50° ENE 17:05:37 10° N
Lacrosse 4 Rocket 2.8 16:58:43 10° WSW 17:02:24 32° NW 17:06:03 10° NNE
Cosmos 1570 Rocket 4.3 16:57:06 10° NNW 17:02:27 76° WSW 17:07:44 10° SSE
Cosmos 2151 3.1 16:59:16 10° N 17:03:19 48° ENE 17:07:20 10° SSE
NOSS 2-2 (E) 2.8 17:00:27 10° SSW 17:03:49 61° SE 17:05:54 18° NE
AQUARIUS 4.3 17:00:47 10° SE 17:05:00 47° ENE 17:09:15 10° N
CENTAUR R/B 3.1 17:00:20 10° WSW 17:06:01 52° NW 17:13:07 10° NE
Cosmos 1867 3.9 17:02:23 10° NNW 17:07:40 46° NE 17:12:53 10° ESE
Cosmos 1626 Rocket 3.7 17:03:36 10° NNW 17:07:57 78° W 17:12:14 10° S
ERS-1 4.5 17:04:20 10° SSE 17:09:14 58° ENE 17:14:08 10° N
Cosmos 2219 4.5 17:05:47 10° N 17:10:03 21° NE 17:12:16 17° ENE
SAR-Lupe-1 4.1 17:06:48 10° SSE 17:10:19 54° ENE 17:13:52 10° N
Cosmos 1486 Rocket 4.0 17:08:27 10° S 17:13:35 66° ESE 17:18:47 10° NNE
Cosmos 1782 2.5 17:10:10 10° S 17:13:45 87° W 17:17:23 10° N
Cosmos 1606 Rocket 4.2 17:12:53 10° SSE 17:16:50 33° E 17:20:08 14° NNE
Intercosmos 24 4.5 17:12:56 10° NNW 17:16:51 55° W 17:20:18 10° S
Cosmos 1315 Rocket 4.4 17:13:21 10° SW 17:16:51 33° WNW 17:20:22 10° N
Cosmos 1076 Rocket 4.5 17:13:38 10° NNE 17:17:12 25° ENE 17:20:46 10° SE
IRS-P3 4.1 17:12:27 10° SSE 17:17:40 60° ENE 17:22:55 10° N
Cosmos 1733 3.3 17:18:33 10° NNW 17:20:13 31° W 17:21:52 10° SSW
IRIDIUM 106 4.3 17:15:18 10° N 17:20:33 71° E 17:25:45 10° S
Cosmos 1980 Rocket 3.6 17:19:00 10° SE 17:22:36 18° E 17:22:55 17° E
Cosmos 773 Rocket 4.3 17:18:31 10° NNW 17:23:43 69° WSW 17:28:54 10° SSE
USA 215 3.8 17:19:58 18° ENE 17:24:28 44° N 17:30:36 10° WNW
Cosmos 1544 Rocket 3.9 17:21:25 10° SSW 17:25:47 68° WNW 17:30:12 10° N
Resurs 1-3 4.3 17:22:10 10° SE 17:25:54 30° ENE 17:29:40 10° N
Okean 1-7 Rocket 3.4 17:25:29 10° N 17:29:53 67° ENE 17:34:13 10° SSE
USA 290 2.4 17:27:27 10° NNW 17:30:43 75° WSW 17:33:57 10° SSE
SMAP 3.7 17:26:43 10° S 17:31:17 58° WSW 17:35:55 10° NNW
Cosmos 1655 Rocket 4.2 17:25:35 10° N 17:31:35 47° ENE 17:37:32 10° SSE
ARIANE 5 R/B 2.7 17:27:06 10° S 17:32:09 76° WSW 17:37:18 10° NNW
PSLV R/B 4.1 17:32:30 28° E 17:33:07 30° ENE 17:36:40 10° N
Cosmos 2084 Rocket 3.3 17:29:02 10° NW 17:33:16 70° NE 17:36:42 15° SE
SAR-Lupe-3 4.3 17:34:24 38° SE 17:34:24 38° SE 17:36:21 10° S
COSMO-SKYMED 1 3.4 17:34:13 26° E 17:34:13 26° E 17:37:32 10° SSE
Cosmos 2263 Rocket 2.7 17:30:02 10° NNW 17:35:15 36° NE 17:38:10 22° E
Landsat 7 4.1 17:32:28 10° S 17:37:06 67° WSW 17:41:45 10° NNW
Cosmos 990 Rocket 4.3 17:32:53 10° S 17:37:41 42° ESE 17:40:00 26° NE
CZ-2D R/B 3.7 17:34:01 10° SE 17:38:03 47° ENE 17:42:04 10° N
SL-19 R/B 4.5 17:33:02 10° SE 17:38:04 43° ENE 17:43:21 10° N
Cosmos 724 4.5 17:32:00 10° NW 17:38:05 78° SW 17:43:57 10° SSE
SPOT 1/Viking Rocket 3.5 17:33:33 10° SSE 17:38:40 62° ENE 17:43:49 10° N
CZ-2D R/B 3.4 17:36:24 10° S 17:39:28 54° WSW 17:42:35 10° NNW
UNK 4.3 17:35:02 10° N 17:39:32 58° WNW 17:44:01 10° SSW
SJ-12 4.3 17:38:42 10° S 17:42:25 59° WSW 17:46:11 10° NNW
Cosmos 1726 Rocket 3.9 17:38:18 10° SSE 17:42:44 47° E 17:45:09 24° NNE
Cosmos 1933 3.1 17:39:27 10° S 17:43:14 66° E 17:45:20 25° NNE
SKYMED 2 3.7 17:41:21 25° NE 17:43:36 49° E 17:47:48 10° S
Cosmos 2360 4.3 17:38:46 10° SSW 17:44:29 80° WNW 17:49:11 16° NNE
ATLAS CENTAUR R/B 2.5 17:41:33 10° NW 17:44:30 33° WSW 17:47:22 10° S
Cosmos 1602 Rocket 4.1 17:41:42 10° NNW 17:46:03 59° W 17:50:18 10° S
Cosmos 2227 Rocket 2.1 17:40:44 10° NNW 17:46:22 66° ENE 17:51:59 10° SE
GEOS 3 Rocket 4.3 17:45:00 17° NNE 17:48:56 51° NW 17:54:07 10° WSW
NOSS 2-3 (E) 4.3 17:47:51 10° S 17:50:33 28° SE 17:50:33 28° SE
Cosmos 1743 4.3 17:49:47 10° NNW 17:52:42 30° W 17:55:36 10° SSW
BREEZE-M DEB (TANK) 4.2 17:50:16 10° SSW 17:53:11 19° SSE 17:53:12 19° SSE
NOSS 2-3 (D) 4.4 17:50:28 10° S 17:53:00 27° SE 17:53:00 27° SE
YAOGAN 1 2.4 17:52:49 10° SSE 17:57:00 61° ENE 18:01:13 10° N
NOSS 3-2 (C) 3.1 17:58:42 10° SW 18:03:46 86° NW 18:06:33 32° NE
Cosmos 1697 Rocket 2.6 17:58:11 10° SSW 18:03:46 74° ESE 18:06:23 33° NE
NOSS 3-2 (A) 4.0 18:00:00 10° WSW 18:04:58 45° NW 18:08:33 22° NNE
IRAS Rocket 4.1 17:59:50 10° SSE 18:05:16 68° ENE 18:10:43 10° NNW
CZ-4C R/B 3.2 17:58:57 10° NW 18:05:56 75° SW 18:14:36 10° SSE
BlueWalker 3 4.3 18:04:08 10° W 18:06:55 21° SW 18:09:41 10° S
Cosmos 1953 Rocket 3.4 18:04:11 10° N 18:08:37 73° ENE 18:13:03 10° SSE
Cosmos 1538 Rocket 4.0 18:04:01 10° NNW 18:09:13 57° ENE 18:10:37 43° ESE
Gbstr 26 Del rocket 3.3 18:10:44 10° SW 18:14:05 45° S 18:14:05 45° S
Cosmos 1825 Rocket 4.3 18:15:50 10° NNW 18:20:05 51° W 18:24:15 10° S
Cosmos 1461 3.0 18:18:02 10° SW 18:21:54 59° NW 18:22:01 59° NW
Cosmos 1354 Rocket 4.2 18:21:25 10° SSW 18:26:40 68° WNW 18:28:58 34° N
Lacrosse 5 rocket 3.0 18:23:46 10° WNW 18:26:02 21° NNW 18:26:02 21° NNW
Nadezhda 2 Rocket 4.3 18:22:36 10° N 18:28:42 61° ENE 18:30:29 44° SE
Spot 4 Rocket 4.3 18:25:01 10° S 18:30:05 67° WSW 18:35:12 10° NNW
Cosmos 2082 4.1 18:26:09 10° NNW 18:30:41 45° NNE 18:30:41 45° NNE
Meteor 2-10 4.0 18:29:28 10° NNW 18:34:49 90° E 18:40:19 10° S
Cosmos 2058 Rocket 4.4 18:31:31 10° S 18:33:48 30° S 18:33:48 30° S
Cosmos 2297 Rocket 4.4 18:34:23 10° NW 18:38:54 25° WSW 18:43:23 10° SSW
Cosmos 1553 Rocket 4.0 18:35:18 10° S 18:40:28 58° SE 18:40:28 58° SE
Cosmos 2219 3.3 18:49:16 10° NNW 18:54:13 67° NNW 18:54:13 67° NNW
CENTAUR R/B 4.2 18:52:50 10° WNW 18:58:24 27° N 19:00:12 25° NNE
USA 238 DEB 3.5 18:57:29 10° SW 19:02:56 72° S 19:02:56 72° S
USA 238 3.5 18:57:35 10° SW 19:03:00 71° S 19:03:00 71° S
USA 281 4.5 19:07:57 27° N 19:07:57 27° N 19:11:09 10° NNW
Cosmos 1980 Rocket 2.6 19:00:11 10° SSW 19:04:43 58° SW 19:04:43 58° SW
USA 215 3.3 19:07:18 65° N 19:07:18 65° N 19:13:27 10° NW
COSMO-SKYMED 1 4.4 19:10:34 27° W 19:10:34 27° W 19:13:04 10° SW
Cosmos 2263 Rocket 3.1 19:13:54 10° NW 19:19:18 45° WSW 19:19:56 44° SW
Cosmos 2227 Rocket 4.4 19:25:37 10° NW 19:29:54 22° WSW 19:34:09 10° SSW
